Regional Weather Roundup
Issued by NWS

Home | Current Version | Previous Version | Graphics & Text | Print | Product List | Glossary On
Versions: 1 2 3 4 5 6 7 8 9 10 11 12 13 14 15 16 17 18 19 20 21 22 23 24 25 26 27 28 29 30 31 32 33 34 35 36 37 38 39 40 41 42 43 44 45 46 47 48 49 50
000
ASUS45 KTFX 290504
RWRMT
MONTANA HOURLY WEATHER ROUNDUP
NATIONAL WEATHER SERVICE GREAT FALLS MT
1104 PM MDT SAT MAR 28 2015

NOTE: "FAIR" INDICATES FEW OR NO CLOUDS BELOW 12000 FEET WITH NO
SIGNIFICANT WEATHER AND/OR OBSTRUCTIONS TO VISIBILITY.

* THESE STATIONS ARE NOT UNDER NWS QUALITY CONTROL. THEY DO NOT
   REPORT WEATHER SUCH AS PRECIPITATION OR FOG.

MTZ001>007-043-290600-
WEST OF THE DIVIDE
CITY           SKY/WX    TMP DP  RH WIND       PRES   REMARKS
KALISPELL      CLOUDY    45  37  74 S6        30.23S
MISSOULA       MOCLDY    41  30  65 VRB5      30.31S
BUTTE          PTCLDY    37  21  52 NW9       30.29R WCI  30
MULLAN PASS    FOG       32  32 100 VRB5      30.28S VSB 3    WCI  27
* ESSEX        N/A       38  36  93 SW1        N/A
* LINCOLN      N/A       40  30  68 S6G14      N/A   WCI  36
* LOOKOUT PASS N/A       39  35  86 VRB2       N/A
* POLSON       N/A       43  34  71 W3G9       N/A
* RONAN APT    CLOUDY    46  36  68 N/A        N/A
* SEELEY LAKE  N/A       37  33  85 E1G7       N/A
* THOMP F APT  CLOUDY    38  12  34 N10G18     N/A   WCI  31
$$

MTZ008-052>055-290600-
SOUTHWEST MONTANA
CITY           SKY/WX    TMP DP  RH WIND       PRES   REMARKS
BOZEMAN        MOCLDY    41  21  45 S5        30.25R
DILLON         CLEAR     37  18  46 W3        30.28R
* W YELLOWSTON PTCLDY    30  16  56 S1         N/A
* THREE FORKS  CLEAR     46  21  37 W7         N/A
* BOULDER HILL N/A       38  18  44 N2G9       N/A
* HOMESTAKE PS N/A       34  20  57 NW9G17     N/A   WCI  27
* MONIDA PASS  N/A       32  15  49 VRB11G16    N/A   WCI  23
* RAYNOLDS PAS N/A       31  27  85 N3G8       N/A
* WHITEHALL    N/A       44  21  40 W10G18     N/A
* WISE RIVER   N/A       38  21  50 W12G20     N/A   WCI  30
$$

MTZ009>010-012-014-046-048-049-054-290600-
EAST SLOPES AND CENTRAL MONTANA
CITY           SKY/WX    TMP DP  RH WIND       PRES   REMARKS
CUT BANK       CLEAR     39  28  65 W21       30.08R WCI  29
GREAT FALLS    CLOUDY    45  27  49 SW12      30.13R
HELENA         CLEAR     46  27  48 W22G28    30.21R
MALMSTROM AFB  MOCLDY    48  27  44 W13       30.14R
* DEARBORN     N/A       47  27  46 SW8        N/A
* EAST GLACIER N/A       39  29  67 NW18G29    N/A   WCI  30
* MONARCH      N/A       37  27  67 SW10       N/A   WCI  30
* PENDROY      N/A       39  26  60 W12        N/A   WCI  32
* ROGERS PASS  N/A       37  28  70 SE12G23    N/A   WCI  29
* SAINT MARY   N/A       42  30  63 SW11G26    N/A
$$

MTZ011-013-016-021-035-040-045-047-050-051-290600-
NORTH CENTRAL MONTANA
CITY           SKY/WX    TMP DP  RH WIND       PRES   REMARKS
HAVRE          CLOUDY    43  39  86 SW6       30.06R
LEWISTOWN      CLOUDY    41  36  82 W10       30.14R
* N BAR RANCH  FAIR      37  34  89 NW35G48   29.99F WCI  24
* MALTA APT    MOCLDY    46  37  71 W16G26     N/A
* CHESTER      N/A       43  36  76 W7         N/A
* DENTON       N/A       41  37  86 W12G17     N/A
* GEYSER       N/A       40  32  73 W16        N/A   WCI  32
* JUDITH GAP   N/A       37  36  96 NW14       N/A   WCI  28
* LOMA         N/A       47  37  68 SW8        N/A
$$

MTZ017>020-022>027-061-062-290600-
NORTHEAST MONTANA
CITY           SKY/WX    TMP DP  RH WIND       PRES   REMARKS
GLASGOW        CLOUDY    45  39  80 NW30G40   29.88R
GLENDIVE       CLOUDY    45  37  74 W28G38    29.77R
JORDAN         CLOUDY    45  41  86 NW36G41   29.92R
SIDNEY         CLOUDY    45  41  86 W25G32    29.68R
WOLF POINT     LGT RAIN  45  39  80 NW31G45   29.81R
* BEAVER HILL  N/A       46  35  66 W25G31     N/A
* CIRCLE       N/A       44  42  93 NW12G25    N/A
* LINDSAY DVD  N/A       40  38  93 W27G36     N/A   WCI  29
* NAVAJO       N/A       39  38  96 NW32G41    N/A   WCI  27
* SACO         N/A       45  40  83 W23G30     N/A
$$

MTZ028>042-056>058-290600-
SOUTHCENTRAL AND SOUTHEAST MONTANA
CITY           SKY/WX    TMP DP  RH WIND       PRES   REMARKS
BAKER          CLEAR     46  30  54 W24G36    29.79S
BILLINGS       CLOUDY    48  27  44 NW25G39   30.11R
LIVINGSTON     CLOUDY    46  19  34 W20       30.20R
MILES CITY     HAZE      45  36  71 W38G60    29.88R
* LAUREL APT   MOCLDY    52  19  27 W20G25     N/A
* ROUNDUP APT  CLOUDY    45  30  56 W21G32     N/A
* ALZADA       N/A       49  22  35 W11G17     N/A
* HYSHAM       N/A       43  29  58 NW25G45    N/A
* LAME DEER    N/A       47  21  36 W23G40     N/A
* REED POINT   N/A       50  21  32 W17G34     N/A
* ROSCOE HILL  N/A       45   6  20 W8G26      N/A
$$

REGIONAL REPORTS...DAKOTAS
CITY           SKY/WX    TMP DP  RH WIND       PRES   REMARKS
WILLISTON      RAIN      46  45  96 W20       29.62R
DICKINSON      CLEAR     46  34  63 W22G30    29.67F
CROSBY         LGT RAIN  41  41 100 NW30G38   29.66R
WATFORD CITY   HAZE      46  41  83 W26G39    29.61F
BISMARCK       CLOUDY    52  45  77 W20G26    29.62F
GRAND FORKS    CLOUDY    43  34  71 S23G32    29.53F
FARGO          CLOUDY    45  28  51 S16       29.69R
BUFFALO SD     PTCLDY    45  36  71 W13       29.75S
RAPID CITY     CLEAR     55  16  21 NW39G55   29.79R
$$

REGIONAL REPORTS...WYOMING/IDAHO/WASHINGTON
CITY           SKY/WX    TMP DP  RH WIND       PRES   REMARKS
GILLETTE       PTCLDY    48  16  28 NW23G33   29.96R
SHERIDAN       CLEAR     50  16  26 NW33G46   30.01R
CODY           MOCLDY    48  10  21 NW13G23   30.13R
YELLOWSTONE LA PTCLDY    30  10  43 CALM      30.27S
SALMON         CLEAR     37  21  52 CALM      30.32R
MULLAN PASS    FOG       32  32 100 VRB5      30.28S VSB 3    WCI  27
SAND POINT     PTCLDY    45  36  71 SW3       30.26R
SPOKANE        PTCLDY    45  34  65 S7        30.27R

$$




USA.gov is the U.S. government's official web portal to all federal, state and local government web resources and services.